Time,TemperatureF,DewpointF,PressureIn,WindDirection,WindDirectionDegrees,WindSpeedMPH,WindSpeedGustMPH,Humidity,HourlyPrecipIn,Conditions,Clouds,dailyrainin,SoftwareType,DateUTC
2014-08-27 00:03:00,68.9,68.3,29.96,South,180,0.0,-999.0,98,-99.99,,,0.00,Acu-Link.com,2014-08-27 04:03:00,
2014-08-27 00:18:00,68.4,67.8,29.97,SSW,202,0.0,-999.0,98,-99.99,,,0.00,Acu-Link.com,2014-08-27 04:18:00,
2014-08-27 00:33:00,68.2,67.6,29.97,WNW,292,0.0,-999.0,98,-99.99,,,0.00,Acu-Link.com,2014-08-27 04:33:00,
2014-08-27 00:49:00,68.0,67.4,29.97,SW,225,0.0,-999.0,98,-99.99,,,0.00,Acu-Link.com,2014-08-27 04:49:00,
2014-08-27 01:04:00,68.0,67.4,29.98,West,270,0.0,-999.0,98,-99.99,,,0.00,Acu-Link.com,2014-08-27 05:04:00,
2014-08-27 01:19:00,67.6,67.1,29.98,NW,315,0.0,-999.0,98,-99.99,,,0.00,Acu-Link.com,2014-08-27 05:19:00,
2014-08-27 01:34:00,67.3,66.7,29.98,NW,315,0.0,-999.0,98,-99.99,,,0.00,Acu-Link.com,2014-08-27 05:34:00,
2014-08-27 01:49:00,66.9,66.3,29.98,NW,315,0.0,-999.0,98,-99.99,,,0.00,Acu-Link.com,2014-08-27 05:49:00,
2014-08-27 02:05:00,66.9,66.3,29.97,WNW,292,0.0,-999.0,98,-99.99,,,0.00,Acu-Link.com,2014-08-27 06:05:00,
2014-08-27 02:20:00,66.7,66.2,29.98,SW,225,0.0,-999.0,98,-99.99,,,0.00,Acu-Link.com,2014-08-27 06:20:00,
2014-08-27 02:35:00,66.7,66.2,29.98,South,180,0.0,-999.0,98,-99.99,,,0.00,Acu-Link.com,2014-08-27 06:35:00,
2014-08-27 02:50:00,66.4,65.8,29.98,WNW,292,0.0,-999.0,98,-99.99,,,0.00,Acu-Link.com,2014-08-27 06:50:00,
2014-08-27 03:05:00,66.2,65.6,29.98,WNW,292,0.0,-999.0,98,-99.99,,,0.00,Acu-Link.com,2014-08-27 07:05:00,
2014-08-27 03:21:00,66.0,65.4,29.98,WNW,292,0.0,-999.0,98,-99.99,,,0.00,Acu-Link.com,2014-08-27 07:21:00,
2014-08-27 03:36:00,65.8,65.3,29.98,WNW,292,1.6,-999.0,98,-99.99,,,0.00,Acu-Link.com,2014-08-27 07:36:00,
2014-08-27 03:51:00,65.5,64.9,29.97,West,270,0.0,-999.0,98,-99.99,,,0.01,Acu-Link.com,2014-08-27 07:51:00,
2014-08-27 04:06:00,64.9,64.4,29.97,NW,315,0.0,-999.0,98,-99.99,,,0.01,Acu-Link.com,2014-08-27 08:06:00,
2014-08-27 04:22:00,64.9,64.4,29.97,NW,315,0.0,-999.0,98,-99.99,,,0.01,Acu-Link.com,2014-08-27 08:22:00,
2014-08-27 04:37:00,64.6,64.0,29.97,SW,225,0.0,-999.0,98,-99.99,,,0.01,Acu-Link.com,2014-08-27 08:37:00,
2014-08-27 04:52:00,64.6,64.0,29.97,WNW,292,0.0,-999.0,98,-99.99,,,0.01,Acu-Link.com,2014-08-27 08:52:00,
2014-08-27 05:07:00,65.1,64.5,29.96,WNW,292,1.1,-999.0,98,-99.99,,,0.01,Acu-Link.com,2014-08-27 09:07:00,
2014-08-27 05:22:00,65.7,65.1,29.97,NW,315,0.0,-999.0,98,-99.99,,,0.01,Acu-Link.com,2014-08-27 09:22:00,
2014-08-27 05:38:00,65.8,65.3,29.97,West,270,0.0,-999.0,98,-99.99,,,0.01,Acu-Link.com,2014-08-27 09:38:00,
2014-08-27 05:53:00,66.2,65.6,29.98,NW,315,0.0,-999.0,98,-99.99,,,0.01,Acu-Link.com,2014-08-27 09:53:00,
2014-08-27 06:08:00,66.4,65.8,29.99,NW,315,0.0,-999.0,98,-99.99,,,0.01,Acu-Link.com,2014-08-27 10:08:00,
2014-08-27 06:23:00,66.4,65.8,29.99,NNW,337,2.2,-999.0,98,-99.99,,,0.01,Acu-Link.com,2014-08-27 10:23:00,
2014-08-27 06:38:00,66.4,65.8,29.99,NE,45,0.0,-999.0,98,-99.99,,,0.01,Acu-Link.com,2014-08-27 10:38:00,
2014-08-27 06:54:00,66.4,65.8,29.99,WNW,292,0.0,-999.0,98,-99.99,,,0.01,Acu-Link.com,2014-08-27 10:54:00,
2014-08-27 07:09:00,66.4,65.8,29.99,SW,225,0.0,-999.0,98,-99.99,,,0.01,Acu-Link.com,2014-08-27 11:09:00,
2014-08-27 07:24:00,66.6,66.0,29.99,SSE,157,0.0,-999.0,98,-99.99,,,0.01,Acu-Link.com,2014-08-27 11:24:00,
2014-08-27 07:39:00,67.1,66.5,30.00,WNW,292,0.0,-999.0,98,-99.99,,,0.01,Acu-Link.com,2014-08-27 11:39:00,
2014-08-27 07:54:00,67.1,66.5,30.00,NNW,337,0.0,-999.0,98,-99.99,,,0.01,Acu-Link.com,2014-08-27 11:54:00,
2014-08-27 08:10:00,67.3,66.7,30.00,NNW,337,3.1,-999.0,98,-99.99,,,0.01,Acu-Link.com,2014-08-27 12:10:00,
2014-08-27 08:25:00,67.5,66.9,30.01,NNW,337,2.7,-999.0,98,-99.99,,,0.01,Acu-Link.com,2014-08-27 12:25:00,
2014-08-27 08:40:00,67.8,67.2,30.01,West,270,0.0,-999.0,98,-99.99,,,0.01,Acu-Link.com,2014-08-27 12:40:00,
2014-08-27 08:55:00,67.8,67.2,30.00,ESE,112,1.6,-999.0,98,-99.99,,,0.01,Acu-Link.com,2014-08-27 12:55:00,
2014-08-27 09:11:00,69.6,69.0,30.00,NNW,337,2.2,-999.0,98,-99.99,,,0.01,Acu-Link.com,2014-08-27 13:11:00,
2014-08-27 09:26:00,68.9,68.3,30.01,NE,45,0.0,-999.0,98,-99.99,,,0.01,Acu-Link.com,2014-08-27 13:26:00,
2014-08-27 09:41:00,70.0,69.4,30.02,ESE,112,3.8,-999.0,98,-99.99,,,0.01,Acu-Link.com,2014-08-27 13:41:00,
2014-08-27 09:56:00,69.3,68.7,30.02,ESE,112,3.1,-999.0,98,-99.99,,,0.01,Acu-Link.com,2014-08-27 13:56:00,
2014-08-27 10:11:00,68.9,68.3,30.02,ESE,112,1.6,-999.0,98,-99.99,,,0.01,Acu-Link.com,2014-08-27 14:11:00,